This demonstration page uses our WeatherBlox Daily Observations layout. Learn more.

Left ArrowRight Arrow

39.01783, -85.05884

Hourly Observations for May 7, 2015

Temp ( °F °C ) Dew Point ( °F °C ) Humidity (%) Winds ( mph kmh ) Pressure ( in mb ) Visibility ( mi km ) Precip ( " mm )
12:52 am 00:52 Mostly Clear 66 18.9 54 12.2 65 65 Calm 30.10 1019 10 16 0.00 0.00
1:52 am 01:52 Clear 67 19.4 54 12.2 63 63 Calm 30.09 1019 9 14 0.00 0.00
2:52 am 02:52 Clear 66 18.9 54 12.2 65 65 Calm 30.07 1018 9 14 0.00 0.00
3:52 am 03:52 Clear 67 19.4 54 12.2 63 63 Calm 30.06 1018 9 14 0.00 0.00
4:52 am 04:52 Mostly Clear 66 18.9 54 12.2 65 65 E 5 7 30.08 1019 9 14 0.00 0.00
5:52 am 05:52 Mostly Clear 63 17.2 54 12.2 73 73 Calm 30.08 1019 8 13 0.00 0.00
6:52 am 06:52 Partly Cloudy 63 17.2 54 12.2 73 73 Calm 30.08 1019 7 11 0.00 0.00
7:52 am 07:52 Sunny 67 19.4 56 13.3 68 68 E 5 7 30.09 1019 8 13 0.00 0.00
8:52 am 08:52 Mostly Sunny 71 21.7 57 13.9 61 61 ESE 6 9 30.10 1019 9 14 0.00 0.03
9:52 am 09:52 Mostly Sunny 75 23.9 57 13.9 54 54 SE 7 11 30.11 1020 10 16 0.00 0.00
10:52 am 10:52 Mostly Sunny 80 26.7 59 15 49 49 S 5 7 30.11 1020 10 16 0.00 0.00
11:52 am 11:52 Sunny 82 27.8 60 15.6 47 47 SSE 6 9 30.11 1020 10 16 0.00 0.00
12:52 pm 12:52 Mostly Sunny 83 28.3 58 14.4 43 43 SSW 7 11 30.09 1019 10 16 0.00 0.00
1:52 pm 13:52 Mostly Cloudy 86 30 58 14.4 39 39 SSW 8 13 30.07 1018 10 16 0.00 0.00
2:52 pm 14:52 Mostly Sunny 85 29.4 58 14.4 40 40 WSW 6 9 30.06 1018 10 16 0.00 0.00
3:52 pm 15:52 Mostly Cloudy 83 28.3 59 15 44 44 Calm 30.04 1017 10 16 0.00 0.00
4:52 pm 16:52 Mostly Cloudy 80 26.7 59 15 49 49 SSW 6 9 30.03 1017 10 16 0.00 0.03
5:52 pm 17:52 Mostly Cloudy 81 27.2 64 17.8 57 57 SSW 5 7 30.02 1017 10 16 0.00 0.00
6:52 pm 18:52 Partly Cloudy 82 28 63 17 51 51 S 6 9 30.00 1016 10 16 0.00 0.00
7:52 pm 19:52 Partly Cloudy 80 26.7 59 15 49 49 S 5 7 30.00 1016 10 16 0.00 0.00
8:52 pm 20:52 Partly Cloudy 75 23.9 59 15 58 58 S 6 9 30.00 1016 10 16 0.00 0.00
9:52 pm 21:52 Clear 74 23.3 57 13.9 56 56 S 5 7 30.01 1016 10 16 0.00 0.00
10:52 pm 22:52 Mostly Clear 68 20 59 15 73 73 S 6 9 30.02 1017 10 16 0.00 0.00
11:52 pm 23:52 Clear 72 22.2 57 13.9 59 59 S 6 9 30.02 1017 10 16 0.00 0.00

Powered by AerisWeather